Weather History for Cooperstown, ND

Change the Weather History Date:

Sunday, February 17, 2013

  Actual Average (KJMS) Record (KJMS)
Temperature  
Mean Temperature 26 °F 16 °F  
Max Temperature 32 °F 25 °F 58 °F (1954)
Min Temperature 19 °F 6 °F -32 °F (1956)
Degree Days  
Heating Degree Days 40 49  
Month to date heating degree days 880  
Since 1 July heating degree days 6242  
Cooling Degree Days 0 0  
Month to date cooling degree days 0  
Year to date cooling degree days 0  
Moisture  
Dew Point 26 °F    
Average Humidity 99    
Maximum Humidity 100    
Minimum Humidity 87    
Precipitation  
Precipitation 0.25 in 0.02 in 0.23 in (1998)
Month to date precipitation 0.20  
Year to date precipitation 0.65  
Sea Level Pressure  
Sea Level Pressure 29.56 in    
Wind  
Wind Speed 17 mph (South)    
Max Wind Speed 24 mph    
Max Gust Speed 30 mph    
Visibility 7 miles    
Events Rain , Snow    
T = Trace of Precipitation, MM = Missing Value Source: NWS Daily Summary

Daily Weather History Graph

Daily Weather History Graph

Search for Another Location

Airport:

Trip Planner

Search our weather history database for the weather conditions in past years. The results will help you decide how hot, cold, wet, or windy it might be!

Date:

Astronomy

Feb. 17, 2013 Rise Set
Actual Time 7:33 AM CST 5:59 PM CST
Civil Twilight 7:02 AM CST 6:31 PM CST
Nautical Twilight 6:26 AM CST 7:06 PM CST
Astronomical Twilight 5:51 AM CST 7:42 PM CST
Moon 10:55 AM CST (2/17) 1:28 AM CST (2/17)
Length of Visible Light 11h 28m
Length of Day
10h 25m
Waxing Crescent, 49% of the Moon is Illuminated
Feb 17
Waxing Crescent
Feb 17
First Quarter
Feb 25
Full
Mar 4
Last Quarter
Mar 11
New

Hourly Weather History & Observations

Time (CST) Temp. Windchill Dew Point Humidity Pressure Visibility Wind Dir Wind Speed Gust Speed Precip Events Conditions
12:15 AM 19.4 °F 5.0 °F 19.4 °F 100% 29.82 in 8.0 mi South 16.1 mph - N/A   Overcast
12:35 AM 21.2 °F 7.8 °F 21.2 °F 100% 29.82 in 7.0 mi South 15.0 mph - N/A   Overcast
12:55 AM 21.2 °F 6.8 °F 21.2 °F 100% 29.81 in 8.0 mi South 17.3 mph - N/A   Overcast
1:15 AM 21.2 °F 7.8 °F 21.2 °F 100% 29.81 in 8.0 mi South 15.0 mph - N/A   Overcast
1:35 AM 23.0 °F 8.3 °F 23.0 °F 100% 29.81 in 8.0 mi South 19.6 mph 24.2 mph N/A   Overcast
1:55 AM 23.0 °F 8.0 °F 23.0 °F 100% 29.79 in 7.0 mi South 20.7 mph 25.3 mph N/A   Overcast
2:15 AM 23.0 °F 8.0 °F 23.0 °F 100% 29.78 in 7.0 mi South 20.7 mph - N/A   Overcast
2:35 AM 23.0 °F 8.0 °F 23.0 °F 100% 29.77 in 6.0 mi South 20.7 mph - N/A   Overcast
2:55 AM 23.0 °F 8.7 °F 23.0 °F 100% 29.76 in 5.0 mi South 18.4 mph 24.2 mph N/A   Overcast
3:15 AM 23.0 °F 8.0 °F 23.0 °F 100% 29.75 in 6.0 mi South 20.7 mph - N/A   Overcast
3:35 AM 23.0 °F 8.3 °F 23.0 °F 100% 29.73 in 5.0 mi South 19.6 mph - N/A   Overcast
3:55 AM 23.0 °F 8.0 °F 23.0 °F 100% 29.73 in 5.0 mi South 20.7 mph - N/A   Overcast
4:15 AM 23.0 °F 7.6 °F 23.0 °F 100% 29.72 in 7.0 mi South 21.9 mph 27.6 mph N/A   Overcast
4:35 AM 24.8 °F 10.0 °F 24.8 °F 100% 29.72 in 7.0 mi SSW 21.9 mph 27.6 mph N/A   Overcast
4:55 AM 24.8 °F 10.3 °F 24.8 °F 100% 29.70 in 7.0 mi South 20.7 mph - N/A   Overcast
5:15 AM 24.8 °F 11.1 °F 24.8 °F 100% 29.69 in 5.0 mi South 18.4 mph - N/A   Overcast
5:55 AM 24.8 °F 10.3 °F 24.8 °F 100% 29.66 in 6.0 mi South 20.7 mph 25.3 mph N/A   Mostly Cloudy
6:15 AM 24.8 °F 10.3 °F 24.8 °F 100% 29.65 in 7.0 mi South 20.7 mph - N/A   Scattered Clouds
6:55 AM 24.8 °F 10.7 °F 24.8 °F 100% 29.62 in 9.0 mi South 19.6 mph - N/A   Scattered Clouds
7:15 AM 24.8 °F 9.3 °F 24.8 °F 100% 29.61 in 7.0 mi South 24.2 mph - N/A   Mostly Cloudy
7:35 AM 24.8 °F 10.0 °F 24.8 °F 100% 29.60 in 7.0 mi South 21.9 mph - N/A   Partly Cloudy
7:55 AM 24.8 °F 9.3 °F 24.8 °F 100% 29.59 in 7.0 mi South 24.2 mph 27.6 mph N/A   Scattered Clouds
8:15 AM 24.8 °F 10.3 °F 24.8 °F 100% 29.58 in 7.0 mi South 20.7 mph - N/A   Partly Cloudy
8:35 AM 24.8 °F 9.3 °F 24.8 °F 100% 29.57 in 6.0 mi South 24.2 mph - N/A   Clear
8:55 AM 24.8 °F 9.6 °F 24.8 °F 100% 29.56 in 7.0 mi South 23.0 mph - N/A   Mostly Cloudy
9:15 AM 24.8 °F 9.6 °F 24.8 °F 100% 29.56 in 7.0 mi South 23.0 mph 27.6 mph N/A   Mostly Cloudy
9:35 AM 24.8 °F 9.6 °F 24.8 °F 100% 29.55 in 5.0 mi South 23.0 mph 28.8 mph N/A   Mostly Cloudy
9:55 AM 24.8 °F 9.6 °F 24.8 °F 100% 29.55 in 6.0 mi South 23.0 mph - N/A   Partly Cloudy
10:15 AM 24.8 °F 10.0 °F 24.8 °F 100% 29.54 in 9.0 mi South 21.9 mph 25.3 mph N/A   Clear
10:35 AM 24.8 °F 9.3 °F 24.8 °F 100% 29.53 in 6.0 mi South 24.2 mph - N/A   Clear
10:55 AM 26.6 °F 11.7 °F 26.6 °F 100% 29.51 in 8.0 mi South 24.2 mph - N/A   Clear
11:15 AM 26.6 °F 12.4 °F 26.6 °F 100% 29.50 in 8.0 mi South 21.9 mph 29.9 mph N/A   Mostly Cloudy
11:55 AM 28.4 °F 14.7 °F 28.4 °F 100% 29.50 in 10.0 mi South 21.9 mph - N/A   Partly Cloudy
12:15 PM 28.4 °F 15.8 °F 28.4 °F 100% 29.50 in 10.0 mi SSW 18.4 mph - N/A   Clear
12:55 PM 30.2 °F 17.4 °F 28.4 °F 93% 29.48 in 10.0 mi SSW 20.7 mph - N/A   Scattered Clouds
1:15 PM 30.2 °F 17.8 °F 28.4 °F 93% 29.47 in 10.0 mi SSW 19.6 mph 24.2 mph N/A   Mostly Cloudy
1:35 PM 30.2 °F 18.1 °F 28.4 °F 93% 29.46 in 10.0 mi SSW 18.4 mph - N/A   Scattered Clouds
1:55 PM 32.0 °F 21.2 °F 28.4 °F 87% 29.46 in 10.0 mi SSW 16.1 mph - N/A   Clear
2:15 PM 32.0 °F 21.2 °F 30.2 °F 93% 29.45 in 10.0 mi SSW 16.1 mph - N/A   Partly Cloudy
2:35 PM 30.2 °F 17.8 °F 30.2 °F 100% 29.44 in 10.0 mi South 19.6 mph - N/A   Mostly Cloudy
2:55 PM 30.2 °F 18.5 °F 30.2 °F 100% 29.44 in 10.0 mi South 17.3 mph - N/A   Mostly Cloudy
3:15 PM 30.2 °F 17.8 °F 28.4 °F 93% 29.43 in 10.0 mi SSW 19.6 mph - N/A   Mostly Cloudy
3:35 PM 32.0 °F 21.6 °F 30.2 °F 93% 29.44 in 10.0 mi South 15.0 mph - N/A   Mostly Cloudy
3:55 PM 30.2 °F 20.2 °F 30.2 °F 100% 29.44 in 10.0 mi South 12.7 mph - N/A   Overcast
4:15 PM 32.0 °F 23.0 °F 30.2 °F 93% 29.44 in 10.0 mi South 11.5 mph - N/A   Mostly Cloudy
4:35 PM 28.4 °F 17.5 °F 28.4 °F 100% 29.44 in 10.0 mi South 13.8 mph - N/A   Scattered Clouds
4:55 PM 28.4 °F 17.0 °F 28.4 °F 100% 29.45 in 10.0 mi SSW 15.0 mph - N/A   Partly Cloudy
5:15 PM 28.4 °F 18.0 °F 28.4 °F 100% 29.46 in 10.0 mi SSW 12.7 mph - N/A   Scattered Clouds
5:35 PM 28.4 °F 18.5 °F 28.4 °F 100% 29.46 in 10.0 mi South 11.5 mph - N/A   Partly Cloudy
5:55 PM 28.4 °F 18.0 °F 28.4 °F 100% 29.47 in 9.0 mi South 12.7 mph - N/A   Scattered Clouds
6:15 PM 28.4 °F 18.5 °F 28.4 °F 100% 29.46 in 5.0 mi South 11.5 mph - N/A Rain Light Freezing Rain
6:35 PM 28.4 °F 16.6 °F 28.4 °F 100% 29.47 in 7.0 mi SSW 16.1 mph - N/A   Mostly Cloudy
6:55 PM 28.4 °F 19.1 °F 28.4 °F 100% 29.47 in 10.0 mi SSW 10.4 mph - N/A   Partly Cloudy
7:15 PM 28.4 °F 22.2 °F 28.4 °F 100% 29.45 in 10.0 mi South 5.8 mph - N/A   Clear
7:35 PM 28.4 °F 18.5 °F 28.4 °F 100% 29.47 in 9.0 mi South 11.5 mph - N/A   Scattered Clouds
7:55 PM 28.4 °F 17.5 °F 28.4 °F 100% 29.48 in 8.0 mi South 13.8 mph - N/A   Overcast
8:15 PM 26.6 °F 16.2 °F 26.6 °F 100% 29.48 in 8.0 mi South 11.5 mph - N/A   Mostly Cloudy
8:35 PM 26.6 °F 20.0 °F 26.6 °F 100% 29.48 in 9.0 mi SW 5.8 mph - N/A   Mostly Cloudy
8:55 PM 26.6 °F 20.0 °F 26.6 °F 100% 29.46 in 8.0 mi South 5.8 mph - N/A   Overcast
9:15 PM 24.8 °F 16.9 °F 24.8 °F 100% 29.46 in 7.0 mi South 6.9 mph - N/A   Mostly Cloudy
9:35 PM 24.8 °F 16.1 °F 24.8 °F 100% 29.47 in 7.0 mi WSW 8.1 mph - N/A   Mostly Cloudy
9:55 PM 26.6 °F 19.1 °F 26.6 °F 100% 29.48 in 7.0 mi WSW 6.9 mph - N/A Snow Light Snow
10:15 PM 28.4 °F - 28.4 °F 100% 29.47 in 4.0 mi Calm Calm - 0.01 in Snow Light Snow
10:35 PM 26.6 °F - 26.6 °F 100% 29.47 in 2.0 mi Calm Calm - 0.05 in Snow Light Snow
10:55 PM 28.4 °F 24.6 °F 28.4 °F 100% 29.46 in 1.8 mi South 3.5 mph - 0.16 in Snow Light Snow
11:15 PM 28.4 °F - 28.4 °F 100% 29.46 in 2.0 mi Calm Calm - 0.01 in Snow Light Snow
11:35 PM 28.4 °F 23.3 °F 28.4 °F 100% 29.46 in 2.0 mi WNW 4.6 mph - 0.03 in Snow Light Snow
11:55 PM 32.0 °F 24.2 °F 32.0 °F 100% 29.46 in 1.5 mi WNW 9.2 mph - 0.09 in Snow Light Snow